Flag for Chad Weather past 2 weeks in Ndjamena, Chad

Now
82 °F

Passing clouds.


Feels Like: 88 °F
Forecast: 73 / 86 °F
Wind: 9 mph from Southwest

Location: Ndjamena

Current Time: Aug 29, 2015 at 11:32:46 AM

Latest Report: Aug 29, 2015 at 11:00 AM


Visibility: N/A

Pressure: 29.95 "Hg

Humidity: 74%

Dew point: 73 °F

Location of NdjamenaLocation

Historic Weather in Ndjamena — Graph

°F

Ndjamena temperature yesterday

Maximum temperature yesterday: 90 °F (at 10:00 AM)
Minimum temperature yesterday: 75 °F (at 12:00 PM)
Average temperature yesterday: 80 °F

Past Weeks' High & Low Weather Summary

 TemperatureHumidityPressure
High97 °F (Aug 22, 1:00 PM)100% (Aug 15, 6:00 AM)29.98 "Hg (Aug 15, 6:00 AM)
Low72 °F (Aug 19, 5:00 AM)36% (Aug 20, 4:00 PM)29.71 "Hg (Aug 22, 5:00 PM)
Average82 °F79%29.85 "Hg
* Reported Aug 14 8:00 AM — Aug 29 8:00 AM, Ndjamena, Weather by CustomWeather, © 2015

Note: Actual official high and low records may vary slightly from our data, if they occured in-between our weather recording intervals... More about our weather records

Advertising

Ndjamena weather history for previous 24 hours

 ConditionsComfort  
Time TempWeatherWind HumidityBarometerVisibility
8:00 AM
Sat, Aug 29
77 °FPassing clouds.7 mph89%29.92 "HgN/A
7:00 AM73 °FPassing clouds.6 mph100%29.89 "HgN/A
6:00 AM73 °FSunny.6 mph100%29.89 "Hg10 mi
5:00 AM73 °FClear.2 mph100%29.89 "Hg10 mi
4:00 AM73 °FClear.6 mph100%29.89 "Hg10 mi
3:00 AM73 °FClear.1 mph100%29.89 "Hg10 mi
2:00 AM75 °FClear.3 mph100%29.89 "Hg10 mi
1:00 AM75 °FClear.2 mph100%29.92 "Hg10 mi
11:00 PM
Fri, Aug 28
75 °FClear.1 mph100%29.95 "Hg10 mi
10:00 PM77 °FClear.1 mph94%29.92 "Hg10 mi
8:00 PM77 °FClear.5 mph94%29.86 "Hg10 mi
6:00 PM81 °FPassing clouds.6 mph79%29.83 "HgN/A
5:00 PM82 °FPassing clouds.7 mph74%29.80 "HgN/A
4:00 PM84 °FPassing clouds.12 mph62%29.80 "HgN/A
3:00 PM82 °FScattered clouds.10 mph66%29.83 "HgN/A
2:00 PM81 °FThunderstorms. Scattered clouds.14 mph74%29.86 "HgN/A
1:00 PM75 °FThunderstorms. Broken clouds.15 mph100%29.92 "Hg4 mi
12:00 PM75 °FThunderstorms. Broken clouds.22 mph94%29.92 "Hg1 mi
Weather by CustomWeather, © 2015

See weather overviewHow to use our weather pages